"2016-06-14 00:00:00",1720731,8.51,350.2,1.52,0.299,21.92,107.4612,18.38,19.42,44.7,0,110.9,13.1,19.19,312.2
"2016-06-14 00:00:30",1720732,8.41,345.9,2.111,0.132,22.44,107.4612,18.38,19.41,45.15,0,110.9,13.1,19.19,307.9
"2016-06-14 00:01:00",1720733,8.32,346.7,1.355,0.156,22.39,107.4612,18.38,19.39,44.43,0,110.9,13.1,19.19,308.7
"2016-06-14 00:01:30",1720734,8.11,346.8,1.318,0.257,22,107.4612,18.38,19.41,43.94,0,110.9,13.1,19.19,308.8
"2016-06-14 00:02:00",1720735,7.514,348.9,0.716,0.231,21.82,107.4612,18.38,19.39,43.7,0,110.9,13.1,19.19,310.9
"2016-06-14 00:02:30",1720736,7.592,349.2,1.121,0.34,21.74,107.4612,18.38,19.39,43.75,0,110.9,13.1,19.19,311.2
"2016-06-14 00:03:00",1720737,6.873,351.8,2.075,0.585,21.65,107.4612,18.38,19.38,43,0,110.9,13.1,19.19,313.8
"2016-06-14 00:03:30",1720738,7.858,348.4,0.609,0.182,21.76,107.4612,18.38,19.39,43.14,0,110.9,13.1,19.19,310.4
"2016-06-14 00:04:00",1720739,7.356,349.4,1.565,0.157,21.67,107.4612,18.38,19.39,43.21,0,110.9,13.1,19.19,311.4
"2016-06-14 00:04:30",1720740,7.364,349.6,1.384,0.242,21.77,107.4612,18.38,19.4,43.24,0,110.9,13.1,19.19,311.6
"2016-06-14 00:05:00",1720741,6.876,348.8,1.571,0.287,21.84,107.462,18.38,19.4,43.35,0,110.9,13.1,19.20,310.8
"2016-06-14 00:05:30",1720742,6.285,350.3,2.226,0.386,21.54,107.4668,18.39,19.41,44.23,0,110.9,13.1,19.21,312.3
"2016-06-14 00:06:00",1720743,6.3,347.4,1.671,0.752,21.8,107.4713,18.4,19.4,44.69,0,110.9,13.1,19.22,309.4
"2016-06-14 00:06:30",1720744,7.398,348.9,0.973,0.116,22.28,107.4753,18.41,19.41,44.01,0,110.9,13.1,19.23,310.9
"2016-06-14 00:07:00",1720745,6.804,346.6,0.719,0.285,22,107.481,18.43,19.42,43.9,0,110.8,13.1,19.24,308.6
"2016-06-14 00:07:30",1720746,6.68,347,0.952,0.1,22.08,107.4891,18.45,19.43,43.72,0,110.8,13.1,19.27,309.0
"2016-06-14 00:08:00",1720747,6.743,348.8,1.018,0.151,22,107.4932,18.46,19.43,43.46,0,110.8,13.1,19.28,310.8
"2016-06-14 00:08:30",1720748,4.531,354.7,4.046,1.163,21.98,107.4977,18.47,19.45,43.14,0,110.8,13.11,19.29,316.7
"2016-06-14 00:09:00",1720749,3.986,357.1,3.692,0.818,21.74,107.5002,18.48,19.44,43.47,0,110.8,13.11,19.29,319.1
"2016-06-14 00:09:30",1720750,2.598,8.7,7.252,0.428,21.83,107.5006,18.48,19.44,43.52,0,110.8,13.11,19.30,330.7
"2016-06-14 00:10:00",1720751,2.84,15.98,3.28,0.52,21.75,107.4937,18.46,19.45,44.04,0,110.8,13.11,19.28,338.0
"2016-06-14 00:10:30",1720752,4.37,21.79,1.532,0.451,21.89,107.4874,18.44,19.46,44.74,0,110.8,13.11,19.26,343.8
"2016-06-14 00:11:00",1720753,4.591,22.37,1.357,0.38,5.921,107.488,18.45,19.46,46.11,0,110.8,13.11,19.26,344.4
"2016-06-14 00:11:30",1720754,4.976,25.08,2.487,0.353,11.91,107.4956,18.47,19.45,47.88,0,110.8,13.11,19.28,347.1
"2016-06-14 00:12:00",1720755,4.842,23.48,2.529,0.351,23.07,107.4972,18.47,19.47,49.44,0,110.8,13.11,19.29,345.5
"2016-06-14 00:12:30",1720756,5.001,27.51,3.243,0.383,18.45,107.4975,18.47,19.5,50.37,0,110.8,13.11,19.29,349.5
"2016-06-14 00:13:00",1720757,7.326,37.76,6.636,1.466,1.312,107.4904,18.45,19.7,51.28,0,110.8,13.06,19.27,359.8
"2016-06-14 00:13:30",1720758,7.206,42.44,7.706,1.397,13.6,107.4654,18.39,19.73,51.08,0,110.8,13.06,19.20,4.4
"2016-06-14 00:14:00",1720759,6.735,42.1,6.318,1.326,8.83,107.4462,18.34,19.76,51.15,0,110.8,13.06,19.16,4.1
"2016-06-14 00:14:30",1720760,6.319,41.37,7.308,1.467,-4.557,107.4153,18.26,19.66,51.65,0,110.8,13.06,19.08,3.4
"2016-06-14 00:15:00",1720761,4.741,36.35,5.151,0.891,18.07,107.3795,18.17,19.42,51.75,0,110.8,13.06,18.98,358.4
"2016-06-14 00:15:30",1720762,5.644,33.92,2.016,0.798,12.38,107.3374,18.06,19.29,51.02,0,110.8,13.11,18.88,355.9
"2016-06-14 00:16:00",1720763,6.041,37.82,2.328,0.92,12.7,107.2942,17.95,19.23,50.72,0,110.8,13.11,18.76,359.8
"2016-06-14 00:16:30",1720764,6.623,39.12,2.546,0.701,12.91,107.2584,17.86,19.16,51.86,0,110.8,13.11,18.67,1.1
"2016-06-14 00:17:00",1720765,7.979,47.21,8.3,1.601,23.69,107.2101,17.73,19.27,51.41,0,110.8,13.07,18.55,9.2
"2016-06-14 00:17:30",1720766,8.85,50.39,8.09,1.477,23.79,107.1674,17.62,19.19,51.22,0,110.8,13.07,18.44,12.4
"2016-06-14 00:18:00",1720767,8.72,49.03,7.524,1.476,24.67,107.1182,17.5,19.11,51.74,0,110.8,13.07,18.31,11.0
"2016-06-14 00:18:30",1720768,8.1,44.87,8.15,1.661,23.64,107.0709,17.38,19.05,52.62,0,110.8,13.07,18.19,6.9
"2016-06-14 00:19:00",1720769,6.879,39,4.702,1.015,23.92,107.0194,17.25,18.77,52.47,0,110.8,13.07,18.06,1.0
"2016-06-14 00:19:30",1720770,6.794,37.36,2.411,1.003,22.18,106.9758,17.13,18.58,52.27,0,110.8,13.11,17.95,359.4
"2016-06-14 00:20:00",1720771,8.49,39.16,1.428,0.428,20.11,106.9336,17.02,18.47,52.36,0,110.8,13.11,17.84,1.2
"2016-06-14 00:20:30",1720772,8.21,37.3,1.499,0.645,19.81,106.8916,16.92,18.39,52.87,0,110.8,13.11,17.73,359.3
"2016-06-14 00:21:00",1720773,8.76,38.5,2.162,1.032,20.33,106.853,16.82,18.27,53.29,0,110.8,13.11,17.63,0.5
"2016-06-14 00:21:30",1720774,8.05,37.45,2.485,1.101,17.85,106.8226,16.74,18.17,53.53,0,110.8,13.11,17.55,359.5
"2016-06-14 00:22:00",1720775,8.46,38.02,2.006,0.871,17.45,106.7908,16.66,18.08,54.42,0,110.8,13.12,17.47,0.0
"2016-06-14 00:22:30",1720776,8.5,37.83,1.606,0.694,17.22,106.7662,16.6,18,55.13,0,110.8,13.12,17.41,359.8
"2016-06-14 00:23:00",1720777,9.47,39.12,1.349,0.573,22.43,106.7562,16.57,17.92,54.07,0,110.7,13.12,17.38,1.1
"2016-06-14 00:23:30",1720778,8.93,39.26,1.444,0.688,21.93,106.7383,16.52,17.85,53.37,0,110.7,13.12,17.33,1.3
"2016-06-14 00:24:00",1720779,8.66,39.4,1.987,0.549,22.08,106.746,16.54,17.79,53.26,0,110.7,13.12,17.35,1.4
"2016-06-14 00:24:30",1720780,8.19,41.98,1.679,0.532,21.91,106.7308,16.51,17.73,53.43,0,110.7,13.12,17.31,4.0
"2016-06-14 00:25:00",1720781,8.74,42.33,1.824,0.46,21.81,106.724,16.49,17.7,53.76,0,110.7,13.13,17.30,4.3
"2016-06-14 00:25:30",1720782,7.343,45.26,1.578,0.498,21.49,106.7249,16.49,17.65,53.7,0,110.7,13.13,17.30,7.3
"2016-06-14 00:26:00",1720783,6.657,46.26,3.902,0.418,21.44,106.7252,16.49,17.62,53.8,0,110.7,13.13,17.30,8.3
"2016-06-14 00:26:30",1720784,6.336,50.17,2.414,0.312,21.41,106.7247,16.49,17.61,53.31,0,110.7,13.13,17.30,12.2
"2016-06-14 00:27:00",1720785,6.033,44.92,2.757,0.276,21.41,106.7221,16.48,17.56,53.13,0,110.7,13.13,17.29,6.9
"2016-06-14 00:27:30",1720786,5.443,43.38,2.299,0.327,21.26,106.714,16.46,17.55,52.84,0,110.7,13.14,17.27,5.4
"2016-06-14 00:28:00",1720787,5.54,54.38,4.26,0.38,21.26,106.7086,16.45,17.54,52.75,0,110.7,13.14,17.26,16.4
"2016-06-14 00:28:30",1720788,5.744,54.38,3.391,0.245,21.21,106.6962,16.42,17.52,53.09,0,110.7,13.14,17.23,16.4
"2016-06-14 00:29:00",1720789,6.039,52.08,2.1,0.24,21.02,106.6923,16.41,17.51,53.74,0,110.7,13.14,17.22,14.1
"2016-06-14 00:29:30",1720790,6.169,51.55,3.487,0.404,20.91,106.6914,16.4,17.5,54.69,0,110.7,13.14,17.21,13.5
"2016-06-14 00:30:00",1720791,6.969,49.19,2.965,0.535,20.84,106.6914,16.4,17.5,55.4,0,110.7,13.14,17.21,11.2
"2016-06-14 00:30:30",1720792,6.771,46.58,3.883,0.461,20.99,106.6914,16.4,17.5,55.54,0,110.7,13.14,17.21,8.6
"2016-06-14 00:31:00",1720793,6.281,57,4.71,0.376,20.93,106.6941,16.41,17.48,55.86,0,110.7,13.14,17.22,19.0
"2016-06-14 00:31:30",1720794,7.528,55.03,1.758,0.367,20.65,106.695,16.41,17.46,55.75,0,110.7,13.14,17.22,17.0
"2016-06-14 00:32:00",1720795,7.405,53.31,1.333,0.202,20.66,106.6815,16.38,17.46,56.07,0,110.7,13.14,17.19,15.3
"2016-06-14 00:32:30",1720796,7.014,53.37,2.395,0.232,20.85,106.6781,16.37,17.44,55.99,0,110.7,13.14,17.18,15.4
"2016-06-14 00:33:00",1720797,6.496,51.1,1.949,0.214,20.79,106.6853,16.39,17.42,55.86,0,110.7,13.14,17.20,13.1
"2016-06-14 00:33:30",1720798,6.538,49.29,2.335,0.344,20.69,106.691,16.4,17.42,56.03,0,110.7,13.15,17.21,11.3
"2016-06-14 00:34:00",1720799,6.543,46.6,2.98,0.408,20.46,106.6897,16.4,17.4,55.99,0,110.7,13.15,17.21,8.6
"2016-06-14 00:34:30",1720800,6.265,43.59,3.574,0.669,20.59,106.6813,16.38,17.39,56.06,0,110.7,13.15,17.19,5.6
"2016-06-14 00:35:00",1720801,6.776,42.4,4.036,0.675,20.4,106.661,16.33,17.36,56.02,0,110.7,13.15,17.14,4.4
"2016-06-14 00:35:30",1720802,6.937,37.36,4.838,1.464,19.68,106.6599,16.32,17.37,58.01,0,110.7,13.15,17.13,359.4
"2016-06-14 00:36:00",1720803,6.569,28.29,3.621,0.819,19.49,106.6588,16.32,17.36,59.69,0,110.7,13.14,17.13,350.3
"2016-06-14 00:36:30",1720804,6.984,23.9,1.827,0.306,19.52,106.6348,16.26,17.35,60.55,0,110.7,13.14,17.07,345.9
"2016-06-14 00:37:00",1720805,7.051,24.52,1.33,0.262,19.51,106.6261,16.24,17.32,60.76,0,110.7,13.14,17.05,346.5
"2016-06-14 00:37:30",1720806,7.049,26.08,1.691,0.528,19.79,106.6261,16.24,17.3,60.33,0,110.7,13.14,17.05,348.1
"2016-06-14 00:38:00",1720807,5.836,29.53,2.291,0.67,20.11,106.61,16.2,17.27,59.13,0,110.6,13.14,17.00,351.5
"2016-06-14 00:38:30",1720808,5.694,31.25,3.571,0.677,20.17,106.5923,16.15,17.24,58.16,0,110.6,13.14,16.96,353.2
"2016-06-14 00:39:00",1720809,5.424,28.34,1.84,0.552,20.02,106.5898,16.14,17.21,57.82,0,110.6,13.14,16.95,350.3
"2016-06-14 00:39:30",1720810,4.947,34.03,3.002,0.461,20.25,106.5633,16.08,17.19,57.39,0,110.6,13.14,16.88,356.0
"2016-06-14 00:40:00",1720811,5.226,30.97,4.595,0.717,20.21,106.5585,16.06,17.16,57.06,0,110.6,13.14,16.87,353.0
"2016-06-14 00:40:30",1720812,6.616,24.46,1.877,0.385,19.92,106.5585,16.06,17.15,56.84,0,110.6,13.14,16.87,346.5
"2016-06-14 00:41:00",1720813,6.089,26.29,1.824,0.376,19.91,106.5503,16.04,17.12,56.22,0,110.7,13.14,16.85,348.3
"2016-06-14 00:41:30",1720814,5.755,27.08,1.817,0.376,19.92,106.5317,16,17.09,55.98,0,110.7,13.15,16.80,349.1
"2016-06-14 00:42:00",1720815,6.539,25.77,2.152,0.499,20.12,106.5247,15.98,17.08,55.58,0,110.7,13.15,16.78,347.8
"2016-06-14 00:42:30",1720816,6.395,29.56,2.524,0.627,20.43,106.5247,15.98,17.06,55.03,0,110.6,13.15,16.78,351.6
"2016-06-14 00:43:00",1720817,5.973,29.58,1.675,0.383,20.37,106.5247,15.98,17.03,54.22,0,110.7,13.15,16.78,351.6
"2016-06-14 00:43:30",1720818,6.367,33.84,2.08,0.74,20.72,106.5247,15.98,17.02,54.83,0,110.7,13.15,16.78,355.8
"2016-06-14 00:44:00",1720819,5.895,33.47,1.791,0.354,18.07,106.5238,15.97,17.02,54.59,0,110.6,13.15,16.78,355.5
"2016-06-14 00:44:30",1720820,5.939,34.56,1.825,0.714,18.49,106.5182,15.96,17,54.48,0,110.6,13.15,16.77,356.6
"2016-06-14 00:45:00",1720821,6.531,36.31,2.221,0.784,13.34,106.5162,15.96,16.99,54.34,0,110.6,13.15,16.76,358.3
"2016-06-14 00:45:30",1720822,7.459,37.98,2.233,0.733,16.45,106.5126,15.95,16.98,54.63,0,110.6,13.15,16.75,360.0
"2016-06-14 00:46:00",1720823,7.31,37.05,2.314,0.843,19.43,106.4999,15.91,16.98,54.19,0,110.7,13.15,16.72,359.0
"2016-06-14 00:46:30",1720824,9.67,45.73,6.726,1.341,16,106.4909,15.89,17.06,55.02,0,110.7,13.1,16.70,7.7
"2016-06-14 00:47:00",1720825,9.77,45.57,7.399,1.352,0.09,106.4909,15.89,17.13,54.98,0,110.7,13.1,16.70,7.6
"2016-06-14 00:47:30",1720826,9.87,47.59,5.41,1.148,10.58,106.4909,15.89,16.99,54.13,0,110.7,13.1,16.70,9.6
"2016-06-14 00:48:00",1720827,9.02,41.8,1.711,0.292,20.35,106.4768,15.85,16.93,53.75,0,110.7,13.15,16.66,3.8
"2016-06-14 00:48:30",1720828,9.34,41.84,1.168,0.307,14.29,106.4601,15.81,16.92,53.71,0,110.6,13.15,16.62,3.8
"2016-06-14 00:49:00",1720829,9.33,43.46,1.832,0.448,22.6,106.4628,15.82,16.88,54.1,0,110.6,13.15,16.63,5.5
"2016-06-14 00:49:30",1720830,9.16,44.8,2.265,0.441,17.37,106.4491,15.78,16.86,54.03,0,110.6,13.16,16.59,6.8
"2016-06-14 00:50:00",1720831,8.33,40.29,2.771,0.722,8.77,106.4413,15.76,16.85,54.24,0,110.6,13.16,16.57,2.3
"2016-06-14 00:50:30",1720832,10.44,47.9,7.641,1.752,17.07,106.4454,15.77,17.01,54.01,0,110.6,13.11,16.58,9.9
"2016-06-14 00:51:00",1720833,9.23,44.21,6.306,1.365,22.58,106.4505,15.79,16.9,53.19,0,110.6,13.11,16.59,6.2
"2016-06-14 00:51:30",1720834,8.02,40.2,1.419,0.389,20.99,106.4523,15.79,16.78,52.71,0,110.6,13.16,16.60,2.2
"2016-06-14 00:52:00",1720835,7.28,39.73,1.573,0.532,15.36,106.4471,15.78,16.77,53.38,0,110.6,13.16,16.59,1.7
"2016-06-14 00:52:30",1720836,7.931,42.58,2.23,0.326,12.76,106.444,15.77,16.76,53.52,0,110.6,13.16,16.58,4.6
"2016-06-14 00:53:00",1720837,8.86,46.34,1.151,0.243,20.8,106.4302,15.73,16.75,52.11,0,110.6,13.16,16.54,8.3
"2016-06-14 00:53:30",1720838,8.49,45.11,1.176,0.3,7.894,106.4257,15.72,16.74,52.03,0,110.6,13.16,16.53,7.1
"2016-06-14 00:54:00",1720839,9.44,46.98,6.511,1.28,2.013,106.4254,15.72,16.83,52.18,0,110.6,13.11,16.53,9.0
"2016-06-14 00:54:30",1720840,9.61,45.9,6.077,1.202,17.55,106.4254,15.72,16.91,51.95,0,110.6,13.11,16.53,7.9
"2016-06-14 00:55:00",1720841,10.01,48.41,7.812,1.614,23.4,106.4254,15.72,16.89,51.59,0,110.6,13.1,16.53,10.4
"2016-06-14 00:55:30",1720842,9.08,44.12,7.472,1.57,21.88,106.4249,15.72,16.81,51.88,0,110.6,13.1,16.53,6.1
"2016-06-14 00:56:00",1720843,8.42,40.13,2.715,0.772,20.28,106.4187,15.71,16.69,51.13,0,110.6,13.15,16.51,2.1
"2016-06-14 00:56:30",1720844,8.33,46.07,1.231,0.207,20.22,106.417,15.7,16.69,52.35,0,110.6,13.15,16.51,8.1
"2016-06-14 00:57:00",1720845,8.27,43.45,2.775,0.483,20.38,106.417,15.7,16.7,52.7,0,110.6,13.15,16.51,5.5
"2016-06-14 00:57:30",1720846,8.66,43.03,1.738,0.629,20.51,106.417,15.7,16.7,52.19,0,110.6,13.15,16.51,5.0
"2016-06-14 00:58:00",1720847,8.43,42.56,2.035,0.457,20.6,106.4192,15.71,16.68,53.12,0,110.6,13.16,16.51,4.6
"2016-06-14 00:58:30",1720848,8.03,42.25,1.94,0.349,20.65,106.4254,15.72,16.69,53.21,0,110.6,13.16,16.53,4.2
"2016-06-14 00:59:00",1720849,8.07,43.15,1.666,0.19,20.61,106.426,15.72,16.71,51.34,0,110.6,13.16,16.53,5.2
"2016-06-14 00:59:30",1720850,7.963,42.2,1.551,0.274,20.67,106.4266,15.73,16.7,51.87,0,110.6,13.16,16.53,4.2
"2016-06-14 01:00:00",1720851,8.36,44.38,1.464,0.317,20.61,106.4314,15.74,16.73,51,0,110.6,13.17,16.54,6.4
"2016-06-14 01:00:30",1720852,8.09,41.44,1.806,0.486,20.7,106.45,15.79,16.74,51.2,0,110.6,13.17,16.59,3.4
"2016-06-14 01:01:00",1720853,7.905,43.91,2.176,0.262,20.54,106.4687,15.83,16.73,50.5,0,110.6,13.17,16.64,5.9
"2016-06-14 01:01:30",1720854,8.12,45.63,1.435,0.139,20.49,106.4728,15.84,16.77,50.59,0,110.6,13.17,16.65,7.6
"2016-06-14 01:02:00",1720855,7.872,46.49,2.054,0.304,20.53,106.4803,15.86,16.77,50.13,0,110.6,13.17,16.67,8.5
"2016-06-14 01:02:30",1720856,7.483,49.62,1.149,0.247,20.48,106.5061,15.93,16.79,50.15,0,110.6,13.17,16.74,11.6
"2016-06-14 01:03:00",1720857,7.783,51.59,1.18,0.506,20.57,106.5141,15.95,16.82,49.75,0,110.6,13.17,16.76,13.6
"2016-06-14 01:03:30",1720858,8.63,50.14,0.633,0.126,20.59,106.5292,15.99,16.82,47.8,0,110.6,13.17,16.80,12.1
"2016-06-14 01:04:00",1720859,8.62,50.16,0.887,0.124,20.57,106.5494,16.04,16.87,47.48,0,110.6,13.17,16.85,12.2
"2016-06-14 01:04:30",1720860,8.62,52.35,0.795,0.112,20.43,106.5652,16.08,16.9,48.25,0,110.6,13.17,16.89,14.3
"2016-06-14 01:05:00",1720861,8.51,52.24,1.253,0.201,20.4,106.5895,16.14,16.94,47.82,0,110.6,13.17,16.95,14.2
"2016-06-14 01:05:30",1720862,7.989,55.56,2.393,0.487,20.4,106.6063,16.19,16.96,47.95,0,110.6,13.17,16.99,17.6
"2016-06-14 01:06:00",1720863,7.892,57.68,3.233,0.205,20.42,106.6231,16.23,17,48.61,0,110.6,13.17,17.04,19.7
"2016-06-14 01:06:30",1720864,7.786,52.23,1.928,0.24,20.33,106.6355,16.26,17.03,48.32,0,110.6,13.17,17.07,14.2
"2016-06-14 01:07:00",1720865,8.39,56.23,2.018,0.411,20.36,106.6569,16.32,17.09,48.71,0,110.6,13.17,17.12,18.2
"2016-06-14 01:07:30",1720866,8.74,57.07,1.033,0.117,20.26,106.6668,16.34,17.11,48.77,0,110.6,13.17,17.15,19.1
"2016-06-14 01:08:00",1720867,8.45,54.99,1.543,0.125,20.27,106.6882,16.4,17.16,48.75,0,110.6,13.17,17.21,17.0
"2016-06-14 01:08:30",1720868,8.03,54.89,1.912,0.25,20.39,106.6916,16.4,17.19,49.07,0,110.6,13.17,17.21,16.9
"2016-06-14 01:09:00",1720869,7.773,54.1,2.034,0.216,20.27,106.7053,16.44,17.23,48.93,0,110.6,13.17,17.25,16.1
"2016-06-14 01:09:30",1720870,6.934,58.11,1.25,0.274,20.43,106.7233,16.49,17.27,49.57,0,110.6,13.17,17.30,20.1
"2016-06-14 01:10:00",1720871,6.44,59.68,1.444,0.227,20.45,106.7236,16.49,17.3,50.04,0,110.6,13.16,17.30,21.7
"2016-06-14 01:10:30",1720872,6.314,60.59,0.756,0.11,20.6,106.7322,16.51,17.31,50.52,0,110.6,13.16,17.32,22.6
"2016-06-14 01:11:00",1720873,6.151,61.01,0.799,0.094,20.82,106.7468,16.55,17.36,50.39,0,110.6,13.16,17.36,23.0
"2016-06-14 01:11:30",1720874,5.828,61.1,0.973,0.081,20.62,106.7536,16.56,17.39,50.3,0,110.6,13.16,17.37,23.1
"2016-06-14 01:12:00",1720875,5.672,64.31,1.37,0.073,21.13,106.7514,16.56,17.42,50.06,0,110.6,13.16,17.37,26.3
"2016-06-14 01:12:30",1720876,5.971,66.42,1.112,0.36,18.65,106.7533,16.56,17.43,50.9,0,110.6,13.16,17.37,28.4
"2016-06-14 01:13:00",1720877,6.278,68.17,0.963,0.171,21.98,106.759,16.58,17.46,51.1,0,110.6,13.16,17.39,30.2
"2016-06-14 01:13:30",1720878,6.113,69.62,1.967,0.156,19.11,106.7749,16.62,17.48,50.9,0,110.6,13.16,17.43,31.6
"2016-06-14 01:14:00",1720879,6.054,68.69,0.648,0.156,21.62,106.7778,16.63,17.49,50.86,0,110.6,13.16,17.44,30.7
"2016-06-14 01:14:30",1720880,6.215,69.14,1.149,0.099,18.82,106.7784,16.63,17.51,50.43,0,110.6,13.16,17.44,31.1
"2016-06-14 01:15:00",1720881,6.328,70.17,0.748,0.128,21.78,106.779,16.63,17.52,50.27,0,110.6,13.16,17.44,32.2
"2016-06-14 01:15:30",1720882,6.329,71.04,0.774,0.074,21.16,106.7783,16.63,17.54,50.21,0,110.6,13.16,17.44,33.0
"2016-06-14 01:16:00",1720883,6.483,72.38,0.863,0.119,21.16,106.7849,16.64,17.57,49.57,0,110.6,13.16,17.45,34.4
"2016-06-14 01:16:30",1720884,6.373,71.3,0.701,0.099,21.19,106.7974,16.68,17.59,50.21,0,110.6,13.17,17.49,33.3
"2016-06-14 01:17:00",1720885,6.446,72.97,0.609,0.1,20.77,106.8059,16.7,17.6,49.88,0,110.6,13.16,17.51,35.0
"2016-06-14 01:17:30",1720886,6.453,74.79,0.954,0.106,20.54,106.8034,16.69,17.62,49.11,0,110.6,13.17,17.50,36.8
"2016-06-14 01:18:00",1720887,6.18,74.54,1.24,0.115,20.61,106.8034,16.69,17.63,48.77,0,110.6,13.16,17.50,36.5
"2016-06-14 01:18:30",1720888,6.159,69.73,0.986,0.129,20.61,106.8034,16.69,17.64,48.43,0,110.6,13.17,17.50,31.7
"2016-06-14 01:19:00",1720889,6.248,70.97,0.545,0.09,20.61,106.8164,16.72,17.66,48.67,0,110.6,13.17,17.54,33.0
"2016-06-14 01:19:30",1720890,6.176,69.03,1.338,0.067,20.69,106.8277,16.75,17.67,48.61,0,110.6,13.17,17.56,31.0
"2016-06-14 01:20:00",1720891,6.388,66.34,0.743,0.177,20.61,106.8335,16.77,17.7,48.11,0,110.6,13.17,17.58,28.3
"2016-06-14 01:20:30",1720892,6.254,66.99,0.741,0.15,20.54,106.8355,16.77,17.69,46.46,0,110.6,13.17,17.58,29.0
"2016-06-14 01:21:00",1720893,6.038,65.33,0.889,0.121,20.74,106.8391,16.78,17.71,46.46,0,110.6,13.17,17.59,27.3
"2016-06-14 01:21:30",1720894,5.877,62.91,0.804,0.096,20.88,106.8421,16.79,17.72,47.21,0,110.6,13.17,17.60,24.9
"2016-06-14 01:22:00",1720895,6.048,62.38,3.935,0.641,21.4,106.8443,16.8,17.82,47.33,0,110.6,13.12,17.61,24.4
"2016-06-14 01:22:30",1720896,7.371,68.34,7.223,1.47,23.29,106.8458,16.8,17.87,47.25,0,110.6,13.12,17.61,30.3
"2016-06-14 01:23:00",1720897,6.364,63.11,4.931,0.994,21.58,106.8359,16.77,17.83,46.97,0,110.6,13.12,17.59,25.1
"2016-06-14 01:23:30",1720898,5.729,62.4,1.033,0.131,20.71,106.8284,16.76,17.73,46.84,0,110.6,13.17,17.57,24.4
"2016-06-14 01:24:00",1720899,5.323,64.32,0.973,0.112,20.63,106.8305,16.76,17.73,46.83,0,110.6,13.17,17.57,26.3
"2016-06-14 01:24:30",1720900,5.564,64.62,1.382,0.144,20.82,106.832,16.76,17.73,46.71,0,110.6,13.17,17.58,26.6
"2016-06-14 01:25:00",1720901,5.947,66.65,1.159,0.232,20.85,106.8333,16.77,17.73,46.7,0,110.6,13.17,17.58,28.7
"2016-06-14 01:25:30",1720902,6.334,65.65,1.316,0.163,20.82,106.8335,16.77,17.72,46.61,0,110.6,13.17,17.58,27.7
"2016-06-14 01:26:00",1720903,5.38,67.99,2.998,0.451,21.12,106.8316,16.76,17.72,46.68,0,110.6,13.17,17.57,30.0
"2016-06-14 01:26:30",1720904,5.67,67.83,1.029,0.149,21.08,106.8251,16.75,17.72,46.7,0,110.6,13.17,17.56,29.8
"2016-06-14 01:27:00",1720905,4.993,77.72,6.412,0.279,21.12,106.8166,16.73,17.72,46.63,0,110.6,13.17,17.54,39.7
"2016-06-14 01:27:30",1720906,5.191,76.96,2.391,0.306,21.41,106.8076,16.7,17.69,47.12,0,110.6,13.17,17.51,39.0
"2016-06-14 01:28:00",1720907,5.399,71.24,1.307,0.169,21.24,106.8006,16.68,17.71,47.03,0,110.6,13.16,17.49,33.2
"2016-06-14 01:28:30",1720908,5.101,71.58,0.89,0.065,21,106.7997,16.68,17.7,46.82,0,110.6,13.16,17.49,33.6
"2016-06-14 01:29:00",1720909,4.957,71.18,1.588,0.087,21.4,106.7997,16.68,17.7,46.85,0,110.6,13.16,17.49,33.2
"2016-06-14 01:29:30",1720910,5.046,71.61,1.364,0.216,21.08,106.7997,16.68,17.7,46.93,0,110.6,13.16,17.49,33.6
"2016-06-14 01:30:00",1720911,5.531,71.8,1.854,0.141,21.24,106.7997,16.68,17.69,47.06,0,110.6,13.16,17.49,33.8
"2016-06-14 01:30:30",1720912,5.321,70.29,2.037,0.26,21.35,106.7997,16.68,17.68,47.37,0,110.6,13.17,17.49,32.3
"2016-06-14 01:31:00",1720913,5.188,64.35,2.506,0.22,21.49,106.7997,16.68,17.69,47.16,0,110.6,13.16,17.49,26.3
"2016-06-14 01:31:30",1720914,5.223,60.27,1.213,0.135,21.55,106.7997,16.68,17.69,47.45,0,110.6,13.16,17.49,22.3
"2016-06-14 01:32:00",1720915,5.627,57.5,0.924,0.106,21.21,106.7997,16.68,17.69,47.83,0,110.6,13.16,17.49,19.5
"2016-06-14 01:32:30",1720916,5.947,56.86,0.813,0.096,21.24,106.7997,16.68,17.69,46.87,0,110.6,13.17,17.49,18.9
"2016-06-14 01:33:00",1720917,6.031,56.38,0.855,0.086,21.3,106.7938,16.67,17.67,46.5,0,110.6,13.17,17.48,18.4
"2016-06-14 01:33:30",1720918,6.183,54.09,1.522,0.063,21.33,106.7704,16.61,17.68,45.88,0,110.6,13.17,17.42,16.1
"2016-06-14 01:34:00",1720919,5.974,52.91,1.927,0.12,21.37,106.7659,16.6,17.65,46.88,0,110.6,13.17,17.41,14.9
"2016-06-14 01:34:30",1720920,5.972,59.17,2.069,0.083,21.31,106.7659,16.6,17.64,46.66,0,110.6,13.17,17.41,21.2
"2016-06-14 01:35:00",1720921,5.718,60.91,0.682,0.082,21.37,106.765,16.59,17.64,47.6,0,110.6,13.17,17.40,22.9
"2016-06-14 01:35:30",1720922,5.689,61.52,1.095,0.237,21.19,106.758,16.57,17.63,47.94,0,110.6,13.18,17.38,23.5
"2016-06-14 01:36:00",1720923,5.723,60.3,2.156,0.125,21.61,106.7532,16.56,17.62,47.96,0,110.6,13.18,17.37,22.3
"2016-06-14 01:36:30",1720924,5.284,58.04,2.647,0.166,21.52,106.7521,16.56,17.6,48.31,0,110.6,13.18,17.37,20.0
"2016-06-14 01:37:00",1720925,5.128,58.21,2.788,0.218,21.31,106.7512,16.56,17.58,48.47,0,110.6,13.18,17.37,20.2
"2016-06-14 01:37:30",1720926,5.541,54.82,1.002,0.122,21.13,106.7526,16.56,17.58,48.11,0,110.6,13.18,17.37,16.8
"2016-06-14 01:38:00",1720927,5.639,53.49,1.118,0.111,21.27,106.7541,16.56,17.58,48.61,0,110.6,13.18,17.37,15.5
"2016-06-14 01:38:30",1720928,5.852,49.71,0.943,0.138,21.21,106.7636,16.59,17.59,50.59,0,110.6,13.18,17.40,11.7
"2016-06-14 01:39:00",1720929,5.649,50.59,1.82,0.094,21.23,106.7659,16.6,17.6,51.42,0,110.6,13.18,17.41,12.6
"2016-06-14 01:39:30",1720930,5.825,48.86,1.023,0.147,21.1,106.7659,16.6,17.59,51.64,0,110.6,13.18,17.41,10.9
"2016-06-14 01:40:00",1720931,5.855,49.12,1.617,0.125,21.32,106.7659,16.6,17.61,51.46,0,110.6,13.18,17.41,11.1
"2016-06-14 01:40:30",1720932,6.009,47.87,0.75,0.111,18.36,106.7659,16.6,17.6,51.19,0,110.6,13.18,17.41,9.9
"2016-06-14 01:41:00",1720933,6.139,48.69,1.019,0.09,21.09,106.7659,16.6,17.61,51.27,0,110.6,13.18,17.41,10.7
"2016-06-14 01:41:30",1720934,6.618,46.97,1.74,0.161,20.93,106.7679,16.6,17.62,48.64,0,110.6,13.18,17.41,9.0
"2016-06-14 01:42:00",1720935,6.651,46.07,1.51,0.099,21.01,106.7842,16.64,17.61,48.28,0,110.6,13.18,17.45,8.1
"2016-06-14 01:42:30",1720936,6.157,42.29,1.401,0.237,21.07,106.7963,16.67,17.62,48.78,0,110.6,13.18,17.48,4.3
"2016-06-14 01:43:00",1720937,6.278,39.91,1.582,0.323,20.77,106.7997,16.68,17.62,47.31,0,110.6,13.18,17.49,1.9
"2016-06-14 01:43:30",1720938,5.923,39.95,3.066,0.429,20.23,106.7997,16.68,17.61,47.6,0,110.6,13.18,17.49,2.0
"2016-06-14 01:44:00",1720939,5.391,36.25,1.085,0.304,20.97,106.7997,16.68,17.64,47.1,0,110.6,13.17,17.49,358.2
"2016-06-14 01:44:30",1720940,5.568,37.42,1.428,0.513,20.65,106.7997,16.68,17.64,46.85,0,110.6,13.17,17.49,359.4
"2016-06-14 01:45:00",1720941,6.586,42.62,2.514,0.23,20.41,106.7997,16.68,17.65,47.14,0,110.6,13.16,17.49,4.6
"2016-06-14 01:45:30",1720942,6.338,40.32,2.115,0.77,19.85,106.7997,16.68,17.64,48.72,0,110.6,13.17,17.49,2.3
"2016-06-14 01:46:00",1720943,6.46,43.02,3.387,0.515,19.74,106.7997,16.68,17.66,49.79,0,110.6,13.16,17.49,5.0
"2016-06-14 01:46:30",1720944,4.703,37.54,5.04,0.712,19.86,106.7997,16.68,17.65,49.63,0,110.6,13.17,17.49,359.5
"2016-06-14 01:47:00",1720945,5.599,41.3,1.778,0.402,19.69,106.7825,16.64,17.65,50.11,0,110.6,13.17,17.45,3.3
"2016-06-14 01:47:30",1720946,3.555,34.26,2.124,0.335,19.65,106.7659,16.6,17.63,50.68,0,110.6,13.16,17.41,356.3
"2016-06-14 01:48:00",1720947,4.615,37.6,2.858,0.7,19.76,106.7645,16.59,17.61,50.86,0,110.6,13.16,17.40,359.6